• Join FlightAware (Why Join?)
  • Login
  • US Flag GB Flag 
07:25 EDT


 

Airport Tracker/Info


-or-


 

Live Flight TrackerFlight Track Log ✈ CPT8773 ✈ 30-Jul-2013 ✈ KCPR - KCOD

Flight Track Log - Related Links

Times and Time Zones

All times are in EDT time to prevent confusion due to time zone crossing. See the CPT8773 flight status page for this flight to view local times or setup timezone preferences in your user account.

Time Position Orientation Groundspeed Altitude Reporting Facility
EDT Latitude Longitude Course Direction KTS MPH feet Rate Location/Type
09:46 42.9364 -106.5039 308° West 119 137 7,300  Level Salt Lake Center
09:47 42.9675 -106.5086 354° North 117 135 7,600 360 Climbing Salt Lake Center
09:48 43.0064 -106.5144 354° North 121 139 8,100 480 Climbing Salt Lake Center
09:49 43.0397 -106.5161 358° North 123 142 8,600 420 Climbing Salt Lake Center
09:50 43.0856 -106.2707 308° West  Level FlightAware Approximate
09:50 43.0719 -106.5189 356° North 123 142 9,000  Level Salt Lake Center
09:51 43.1094 -106.3122 308° West  Level FlightAware Approximate
09:51 43.1089 -106.5239 354° North 121 139 9,600  Level Salt Lake Center
09:52 43.1397 -106.5278 355° North 119 137 10,000 360 Climbing Salt Lake Center
09:53 43.1700 -106.5356 349° North 109 125 10,400 360 Climbing Salt Lake Center
09:54 43.2114 -106.5417 354° North 112 129 10,900 360 Climbing Denver Center
09:55 43.2392 -106.5553 340° North 113 130 11,300 300 Climbing Denver Center
09:56 43.2542 -106.5883 302° West 106 122 11,600 300 Climbing Denver Center
09:57 43.2744 -106.6281 305° West 111 128 12,000 120 Climbing Denver Center
09:58 43.3031 -106.6825 306° West 138 159 12,000  Level Denver Center
09:59 43.3269 -106.7247 308° West 145 167 12,000  Level Denver Center
10:00 43.3489 -106.7708 303° West 149 171 12,000  Level Denver Center
10:02 43.3781 -106.8186 310° West 148 170 12,000  Level Denver Center
10:03 43.4006 -106.8608 306° West 145 167 12,000  Level Denver Center
10:04 43.4261 -106.9106 305° West 143 165 12,000  Level Denver Center
10:05 43.4475 -106.9506 306° West 139 160 12,100  Climbing Denver Center
10:06 43.4686 -106.9964 302° West 143 165 12,000  Descending Denver Center
10:07 43.4944 -107.0439 307° West 141 162 12,100  Climbing Denver Center
10:08 43.5167 -107.0856 306° West 140 161 12,000 -60 Descending Denver Center
10:09 43.5428 -107.1319 308° West 138 159 12,000 -60 Level Denver Center
10:09 43.5567 -107.1589 305° West 136 157 11,900 -120 Descending Salt Lake Center
10:10 43.5772 -107.1992 305° West 134 154 11,900  Level Salt Lake Center
10:11 43.6008 -107.2458 305° West 134 154 11,900  Level Salt Lake Center
10:12 43.6228 -107.2864 307° West 135 155 11,900  Level Salt Lake Center
10:13 43.6450 -107.3294 306° West 139 160 11,900  Level Salt Lake Center
10:14 43.6731 -107.3775 309° West 142 163 11,900  Level Salt Lake Center
10:17 43.7018 -107.4581 296° West  Level FlightAware Approximate
10:24 43.8645 -107.7760 307° West  Level FlightAware Approximate
10:25 43.8883 -107.8208 306° West  Level FlightAware Approximate
10:26 43.9122 -107.8657 306° West  Level FlightAware Approximate
10:27 43.9360 -107.9106 306° West  Level FlightAware Approximate
10:28 43.9599 -107.9555 306° West  Level FlightAware Approximate
10:29 43.9837 -108.0005 306° West  Level FlightAware Approximate
10:30 44.0074 -108.0454 306° West  Level FlightAware Approximate
10:31 44.0312 -108.0905 306° West  Level FlightAware Approximate
10:32 44.0550 -108.1356 306° West  Level FlightAware Approximate
10:33 44.0787 -108.1807 306° West  Level FlightAware Approximate
10:34 44.1024 -108.2258 306° West  Level FlightAware Approximate
10:35 44.1261 -108.2710 306° West  Level FlightAware Approximate
10:36 44.1498 -108.3162 306° West  Level FlightAware Approximate
10:37 44.1741 -108.3608 307° West  Level FlightAware Approximate
10:38 44.1984 -108.4053 307° West  Level FlightAware Approximate
10:39 44.2228 -108.4499 307° West  Level FlightAware Approximate
10:40 44.2471 -108.4946 307° West  Level FlightAware Approximate
10:41 44.2714 -108.5392 307° West  Level FlightAware Approximate
10:42 44.2958 -108.5838 307° West  Level FlightAware Approximate
10:43 44.3188 -108.6274 306° West  Level FlightAware Approximate
10:44 44.3418 -108.6711 306° West  Level FlightAware Approximate
10:45 44.3648 -108.7148 306° West  Level FlightAware Approximate
10:46 44.3874 -108.7589 303° West  Level FlightAware Approximate
10:47 44.4082 -108.8047 303° West  Level FlightAware Approximate
10:48 44.4291 -108.8505 303° West  Level FlightAware Approximate
10:49 44.4499 -108.8963 302° West  Level FlightAware Approximate
10:50 44.4715 -108.9414 310° West  Level FlightAware Approximate
10:51 44.4965 -108.9830 310° West  Level FlightAware Approximate
10:52 44.5167 -109.0167 310° West  Level FlightAware Approximate
10:53 44.5202 -109.0238 310° West  Level Estimated
10:54 44.5167 -109.0167 310° West  Level FlightAware Approximate
10:55 44.5202 -109.0238 310° West  Level Estimated
10:56 44.5167 -109.0167 310° West  Level FlightAware Approximate
10:57 44.5202 -109.0238 310° West  Level Estimated
10:58 44.5167 -109.0167 310° West  Level FlightAware Approximate
10:59 44.5202 -109.0238 310° West  Level Estimated
11:00 44.5167 -109.0167 310° West  Level FlightAware Approximate
11:01 44.5202 -109.0238 310° West  Level Estimated
11:02 44.5167 -109.0167 310° West  Level FlightAware Approximate
11:03 44.5202 -109.0238 310° West  Level Estimated
11:04 44.5167 -109.0167 310° West  Level FlightAware Approximate
11:05 44.5202 -109.0238 310° West  Level Estimated
11:06 44.5167 -109.0167 310° West  Level FlightAware Approximate
11:07 44.5202 -109.0238 310° West  Level Estimated
11:08 44.5167 -109.0167 310° West  Level FlightAware Approximate